QB50P1

Last updated on Thu Nov 21 2024 00:03:02 GMT+0000 (Coordinated Universal Time)

1 40025U 14033R 24325.39229933 .00013669 00000+0 97582-3 0 9996 2 40025 98.0640 291.9601 0013025 24.4169 335.7671 15.04581008566321
UTC large
Height (km)
Speed (km/s)
/
Latitude / Longitude
Inclination (degrees)
Orbital Period (minutes)
Azimuth
Elevation
Range (km)
Doppler Factor

Next 0 passes for location: London (51.5072 / 0.1276)

Sorry there are no passes over London.